This is the latest recevied weather packets stored in our database for station/object M3YFM-13. If no packets are shown the sender has not sent any weather packets the latest 10 day(s).
| Time | Temp. | Humidity | Pressure | Rain* | Wind** | Luminosity | Snow |
|---|---|---|---|---|---|---|---|
| 1777484036 | 17.78° C | 23% | - | 0 mm | - | - | - |
| 1777483736 | 17.78° C | 22% | - | 0 mm | - | - | - |
| 1777483135 | 17.78° C | 22% | - | 0 mm | - | - | - |
| 1777482835 | 17.78° C | 22% | - | 0 mm | - | - | - |
| 1777482234 | 18.33° C | 21% | - | 0 mm | - | - | - |
| 1777481934 | 17.78° C | 20% | - | 0 mm | - | - | - |
| 1777481634 | 17.78° C | 20% | - | 0 mm | - | - | - |
| 1777481333 | 18.33° C | 20% | - | 0 mm | - | - | - |
| 1777480733 | 18.33° C | 21% | - | 0 mm | - | - | - |
| 1777480433 | 18.33° C | 18% | - | 0 mm | - | - | - |
| 1777480132 | 18.33° C | 18% | - | 0 mm | - | - | - |
| 1777479832 | 18.33° C | 18% | - | 0 mm | - | - | - |
| 1777479532 | 18.33° C | 18% | - | 0 mm | - | - | - |
| 1777479231 | 18.33° C | 17% | - | 0 mm | - | - | - |
| 1777478931 | 18.89° C | 18% | - | 0 mm | - | - | - |
| 1777478631 | 18.89° C | 18% | - | 0 mm | - | - | - |
| 1777478331 | 18.89° C | 17% | - | 0 mm | - | - | - |
| 1777478030 | 19.44° C | 19% | - | 0 mm | - | - | - |
| 1777477730 | 18.89° C | 17% | - | 0 mm | - | - | - |
| 1777477430 | 18.33° C | 16% | - | 0 mm | - | - | - |
| 1777477129 | 18.33° C | 17% | - | 0 mm | - | - | - |
| 1777476829 | 18.89° C | 16% | - | 0 mm | - | - | - |
| 1777476529 | 18.33° C | 17% | - | 0 mm | - | - | - |
| 1777476229 | 18.33° C | 17% | - | 0 mm | - | - | - |
| 1777475928 | 18.89° C | 17% | - | 0 mm | - | - | - |
* Rain since midnight (hover to see other rain measurements)
** Current wind speed in m/s (hover to see current wind gust speed)